Regional Weather Roundup
Issued by NWS Little Rock, AR

Home | Current Version | Previous Version | Graphics & Text | Print | Product List | Glossary On
Versions: 1 2 3 4 5 6 7 8 9 10 11 12 13 14 15 16 17 18 19 20 21 22 23 24 25 26 27 28 29 30 31 32 33 34 35 36 37 38 39 40 41 42 43 44 45 46 47 48 49 50
000
ASUS44 KLZK 291305
RWRLZK

WEATHER ROUNDUP FOR ARKANSAS
NATIONAL WEATHER SERVICE LITTLE ROCK AR
800 AM CDT FRI AUG 29 2014

NOTE: "FAIR" INDICATES FEW OR NO CLOUDS BELOW 12,000 FEET WITH NO
SIGNIFICANT WEATHER AND/OR OBSTRUCTIONS TO VISIBILITY.

ARZ001-003-010-029-291400-
NORTHWEST ARKANSAS

CITY           SKY/WX    TMP DP  RH WIND       PRES   REMARKS
FAYETTEVILLE   CLOUDY    74  68  81 S9        29.94F
FORT SMITH     MOSUNNY   77  69  76 E7        29.91S
HARRISON       MOSUNNY   72  65  78 SE6       29.97S
BENTONVILLE    MOSUNNY   73  66  78 S5        29.95S
ROGERS         PTSUNNY   74  66  76 SE7       29.95F
SILOAM SPGS    PTSUNNY   73  63  68 SE8       29.94F
HIGHFILL       PTSUNNY   74  68  81 SE8       29.93F
$$

ARZ004-005-016-291400-
NORTH CENTRAL ARKANSAS

CITY           SKY/WX    TMP DP  RH WIND       PRES   REMARKS
BATESVILLE     SUNNY     73  64  73 SE5       29.96F
FLIPPIN        SUNNY     70  61  73 CALM      29.96S
MTN HOME       PTSUNNY   72  63  73 SE5       29.96S
$$

ARZ040-041-291400-
WEST CENTRAL ARKANSAS

CITY           SKY/WX    TMP DP  RH WIND       PRES   REMARKS
MENA           PTSUNNY   79  73  83 CALM      29.97S
MOUNT IDA      MOSUNNY   74  72  93 CALM      29.94S
$$

ARZ009-017-025-026-028-291400-
NORTHEAST ARKANSAS

CITY           SKY/WX    TMP DP  RH WIND       PRES   REMARKS
CORNING          N/A     75  73  94 CALM      29.97S FOG
JONESBORO      MOSUNNY   74  71  91 CALM      29.97R
NEWPORT        SUNNY     74  69  84 CALM      29.98R
WALNUT RIDGE   SUNNY     73 -18   2 S3        29.96S
BLYTHEVILLE    SUNNY     75  73  93 S6        29.98R
$$

ARZ022-023-033-042-044-291400-
CENTRAL ARKANSAS

CITY           SKY/WX    TMP DP  RH WIND       PRES   REMARKS
LITTLE ROCK    PTSUNNY   74  69  85 SE5       29.96S
N LITTLE ROCK    N/A     77  71  82 CALM      29.96S
JACKSONVILLE   MOSUNNY   74  70  88 NE1       29.96R
SEARCY         SUNNY     74  69  84 CALM      29.97S
HOT SPRINGS    MOSUNNY   74  72  93 CALM      29.97
RUSSELLVILLE   CLOUDY    75  70  84 CALM      29.95S
CLINTON        FAIR      70  66  88 CALM      29.97F
$$

ARZ036-291400-
EAST ARKANSAS

CITY           SKY/WX    TMP DP  RH WIND       PRES   REMARKS
WEST MEMPHIS   MOSUNNY   75  71  87 CALM      29.97R
$$

ARZ050-053-066-070-073-291400-
SOUTHWEST ARKANSAS

CITY           SKY/WX    TMP DP  RH WIND       PRES   REMARKS
ARKADELPHIA    FAIR      76  74  93 S3        29.97R
CAMDEN         LGT RAIN  75  70  83 CALM      29.96S
TEXARKANA      PTSUNNY   75  74  96 CALM      29.96R
EL DORADO      PTSUNNY   75  73  93 VRB3      29.97R
DE QUEEN       CLOUDY    75  72  90 CALM      29.93R FOG
$$

ARZ056-057-069-291400-
SOUTHEAST ARKANSAS

CITY           SKY/WX    TMP DP  RH WIND       PRES   REMARKS
PINE BLUFF     LGT RAIN  72  70  93 CALM      29.98R
STUTTGART      MOSUNNY   75  70  83 S8        29.99R
MONTICELLO     MOSUNNY   75  70  84 CALM      29.98R

$$




USA.gov is the U.S. government's official web portal to all federal, state and local government web resources and services.